Theta_e
317 317 319 320 318 318 318 319 321 322 319 320 320 321 324 325 328 329 329 330 330 330 330 331 331 329 329 328 324 324 325 327 327 327 324 318 316 315 315 313 312 314 318 321
318 320 320 317 317 317 317 318 317 317 317 319 323 323 320 323 326 329 329 328 329 327 327 330 330 331 331 329 330 327 324 323 321 318 317 317 317 316 316 315 314 313 313 315
319 321 321 321 321 321 319 319 319 318 315 315 316 314 321 322 322 324 327 327 326 327 327 326 329 330 330 329 329 326 322 319 318 317 317 316 316 316 316 315 313 312 313 313
321 321 321 321 322 320 322 319 319 319 316 315 313 314 312 320 323 326 325 322 322 322 322 320 320 326 328 328 328 327 323 319 318 318 317 316 316 315 314 313 313 312 312 314
324 321 321 321 322 321 320 320 318 318 316 314 314 313 316 322 323 321 319 319 318 317 315 313 316 318 317 318 321 324 322 321 321 321 320 319 317 316 316 315 314 313 313 313
323 321 321 322 320 318 317 316 312 313 311 315 316 317 321 321 322 320 320 319 315 313 312 313 314 314 314 315 317 321 318 316 316 314 313 313 314 314 314 315 317 317 316 315
322 323 321 322 323 319 314 312 313 313 319 317 315 323 321 320 319 319 319 315 314 313 313 312 310 311 313 312 312 312 311 311 311 311 310 309 309 309 309 309 310 310 311 313
323 324 323 322 321 321 316 313 314 317 318 316 317 325 322 319 319 317 314 314 315 314 309 308 309 310 311 311 311 311 310 310 309 309 308 308 308 308 309 309 309 309 310 311
322 325 322 319 318 318 316 317 314 315 317 317 316 322 320 320 317 315 315 315 314 307 306 307 308 310 310 311 311 310 309 309 309 308 308 309 308 308 308 308 308 308 309 310
323 322 323 322 320 317 314 313 315 315 324 321 316 318 321 321 318 315 313 311 308 307 307 306 308 310 310 310 310 310 309 309 309 308 307 306 306 305 305 305 306 306 306 306
321 320 320 323 320 319 315 318 312 313 315 317 318 318 314 318 315 313 312 311 309 309 307 305 306 309 310 310 310 309 309 308 307 306 305 305 304 304 303 303 303 303 304 303
323 321 324 324 322 319 315 315 312 315 315 317 317 319 313 313 312 310 312 310 308 307 308 305 306 309 309 309 308 308 308 306 305 305 304 304 304 304 303 303 303 303 303 303
320 318 318 312 317 319 321 320 312 312 312 317 316 316 314 313 313 312 312 309 309 308 308 306 308 308 308 308 308 308 307 305 304 304 304 304 303 303 303 303 303 303 303 304
321 318 317 314 315 321 322 321 319 316 314 317 316 317 314 313 313 312 310 309 309 308 307 306 306 307 308 308 308 306 305 304 304 303 303 303 303 303 303 303 303 304 304 304
313 315 319 320 320 322 321 321 320 317 316 317 317 318 314 312 313 312 311 310 310 309 309 308 306 306 307 307 307 306 305 304 303 303 303 303 303 303 304 304 304 304 304 304
315 319 322 323 322 324 324 322 321 320 318 317 316 317 313 314 312 312 311 310 309 309 309 307 307 307 307 307 305 305 304 304 303 303 303 303 304 304 304 305 305 305 305 305
318 318 319 321 322 322 315 318 320 318 316 314 315 313 314 314 313 311 310 308 309 310 309 307 306 306 306 306 305 304 304 303 302 302 303 304 304 305 305 305 305 306 306 306
318 318 318 321 320 321 314 317 320 317 315 315 315 315 314 315 315 310 309 308 309 309 307 306 306 306 306 306 305 304 303 303 303 302 303 304 304 305 305 306 306 306 307 307
316 315 317 319 320 318 320 321 317 316 317 316 316 316 317 316 312 312 310 308 309 308 308 307 306 305 304 305 304 303 303 302 303 303 303 304 304 305 306 306 307 308 308 307
316 313 316 318 320 322 318 320 315 315 318 317 316 316 316 312 313 310 310 309 309 308 308 306 305 305 304 303 303 302 302 302 303 303 303 304 305 306 306 308 306 306 306 307
319 319 317 316 319 319 317 318 316 320 320 316 315 315 314 313 310 309 308 309 308 308 307 306 305 304 303 302 302 302 302 303 303 303 304 304 305 306 307 307 307 306 306 305
322 319 319 317 321 324 318 318 319 317 313 315 315 314 312 310 310 308 307 308 307 306 305 305 304 303 302 302 302 302 302 302 303 303 304 304 306 307 308 307 307 307 306 305
324 319 321 318 320 316 315 316 314 312 315 314 314 311 310 308 308 307 308 307 306 306 304 305 304 302 302 302 302 302 302 303 303 303 304 304 305 307 308 307 307 307 306 304
318 316 320 319 317 319 317 316 314 313 314 312 310 309 307 308 306 308 306 305 305 305 304 304 303 302 301 302 302 302 302 303 303 303 303 304 305 306 308 308 308 307 307 305
316 315 316 316 315 316 317 316 316 315 312 311 308 308 307 306 307 307 306 305 305 304 304 303 302 301 302 302 302 302 302 302 302 303 303 304 305 306 307 308 308 308 308 307
314 315 316 318 314 315 314 315 315 313 311 309 309 308 308 307 307 308 306 306 305 304 304 303 302 302 302 302 302 302 302 302 302 303 304 304 304 306 307 308 309 308 308 308
Wind_Speed
4 6 4 4 3 5 6 5 4 2 5 2 4 7 16 11 7 12 11 10 8 10 13 21 23 21 19 16 14 11 8 6 5 3 2 3 7 8 9 9 10 11 9 13
6 3 3 9 7 8 8 4 3 5 3 3 1 5 6 8 5 11 14 9 9 5 6 13 21 22 22 21 16 12 9 7 5 3 2 4 8 12 14 13 11 11 13 15
6 2 5 7 5 7 3 4 3 4 6 3 2 6 2 4 5 6 3 5 5 11 10 7 16 17 18 15 15 14 13 11 10 11 11 12 13 16 15 15 14 15 16 14
4 2 6 5 4 3 1 3 2 4 4 2 4 4 5 5 4 6 6 3 6 6 2 3 3 10 16 16 16 18 17 16 14 15 16 16 18 18 19 19 19 19 19 16
4 5 2 7 3 0 4 1 3 2 2 3 6 3 6 2 4 3 3 3 4 1 3 2 5 10 9 10 16 17 16 17 17 18 19 19 20 23 24 23 23 22 23 23
2 2 3 4 2 3 2 4 6 4 3 2 2 3 5 1 2 3 3 4 5 6 5 4 7 2 4 0 0 4 4 7 9 10 11 9 10 13 17 22 26 29 29 28
7 4 5 1 2 2 8 7 4 5 5 4 6 4 7 4 3 6 8 6 5 4 2 2 5 3 5 5 3 3 5 4 5 6 11 16 19 20 22 24 26 26 24 26
3 4 3 2 2 2 3 5 5 2 1 5 5 3 5 4 1 3 5 6 3 2 6 6 8 9 10 9 4 2 5 9 13 19 24 25 23 24 25 24 23 24 25 25
3 2 3 2 2 3 2 2 4 5 2 2 3 3 5 2 3 4 4 4 5 7 5 4 7 8 4 3 3 7 13 18 22 22 21 21 22 22 24 22 23 23 21 18
3 1 2 3 3 3 2 5 2 3 0 3 4 4 5 6 7 5 4 3 4 2 3 5 1 0 1 3 6 13 18 18 18 19 22 27 30 29 28 26 27 25 25 25
3 4 5 2 2 4 3 1 6 4 4 5 2 5 4 6 5 7 3 1 0 2 2 4 5 3 3 6 12 15 16 16 18 27 29 29 26 26 25 24 24 22 21 23
2 5 2 7 6 3 4 4 5 5 4 1 3 6 5 5 6 6 2 2 1 4 4 5 3 3 7 12 16 16 15 20 28 28 26 27 28 27 26 23 21 20 22 21
4 2 3 8 6 6 4 3 5 4 3 5 5 6 1 3 4 1 1 2 3 5 3 3 3 6 12 17 19 15 21 27 29 28 26 27 28 27 26 24 24 24 23 23
7 3 6 6 5 2 4 4 1 5 3 3 6 3 5 3 3 0 1 5 5 4 5 3 5 10 15 17 14 20 23 27 29 27 25 26 26 25 26 26 26 25 24 23
4 3 4 6 7 4 5 8 5 6 6 5 7 7 6 6 5 5 4 2 2 5 4 4 5 11 15 15 17 21 25 27 28 27 25 25 26 27 26 26 26 27 24 24
2 1 2 4 4 3 6 10 10 7 2 3 4 3 4 3 2 3 4 4 6 6 5 6 8 14 18 17 18 24 28 29 28 26 25 26 26 26 27 27 27 26 26 24
4 5 3 4 4 7 5 3 1 1 1 5 5 6 4 2 5 6 5 5 7 5 5 7 9 14 18 20 20 26 30 28 26 26 25 26 26 27 30 30 28 27 25 23
6 5 2 3 4 1 6 4 5 3 1 3 5 5 6 5 2 5 4 3 5 5 6 8 12 16 21 19 23 28 27 22 25 24 25 27 29 30 31 31 28 27 25 23
3 5 3 3 2 6 7 3 3 4 6 5 7 6 4 0 3 3 2 3 3 4 7 10 13 18 19 21 24 25 21 21 24 23 26 30 31 32 31 30 29 25 22 20
5 5 5 3 2 4 6 2 3 4 5 7 7 7 5 4 3 4 3 4 3 6 8 9 15 16 22 22 23 21 20 21 22 27 29 30 31 31 31 26 26 24 20 18
2 2 5 3 4 7 8 5 2 5 8 7 7 6 7 4 5 3 2 2 2 4 7 12 14 19 19 20 21 20 20 20 26 29 30 31 33 32 29 28 26 25 22 17
8 7 4 3 2 7 7 4 8 7 1 6 6 6 6 5 4 4 5 2 2 5 11 13 15 20 19 18 20 19 19 25 27 29 30 31 33 33 27 28 26 25 21 17
2 7 6 9 7 5 8 6 6 6 6 6 7 6 7 7 5 5 5 3 3 6 10 10 14 19 18 17 19 19 23 26 28 29 29 30 32 30 30 27 24 22 20 16
3 4 3 3 4 6 7 3 4 6 6 6 6 6 8 6 6 5 3 4 3 8 10 10 16 19 19 18 19 20 24 25 26 27 27 29 28 32 29 28 24 20 18 21
5 4 4 3 6 4 5 7 6 5 5 5 6 7 8 7 6 5 4 4 4 7 8 9 15 16 17 18 19 21 23 26 25 26 26 26 27 27 26 27 25 22 20 15
5 6 5 6 8 6 7 5 8 10 9 10 8 6 6 9 7 7 5 5 3 7 6 10 16 15 17 18 17 19 21 24 24 24 23 25 27 27 24 24 23 24 18 15
Wind_Direction
1 61 59 332 104 102 117 74 20 308 330 76 295 167 175 164 156 148 155 163 170 176 188 175 171 175 179 184 190 190 207 208 218 236 275 358 346 330 326 324 320 319 301 279
26 56 90 113 95 86 51 59 341 290 322 17 114 254 105 159 174 173 160 161 174 178 198 194 185 183 186 198 196 197 207 213 214 206 249 308 290 293 289 286 307 315 317 309
118 115 134 96 55 63 45 100 311 257 334 359 18 319 99 47 96 108 154 171 170 179 188 206 206 197 205 215 212 211 211 211 221 232 238 256 271 272 274 282 291 308 306 302
63 7 105 92 91 121 74 210 271 289 40 261 34 278 11 346 85 144 189 181 197 208 237 327 146 206 225 235 223 219 217 222 238 240 245 252 258 262 271 277 277 287 290 284
272 169 60 60 345 110 219 270 322 331 184 91 340 86 283 33 65 63 81 176 212 114 162 63 149 186 198 220 224 227 228 239 252 256 266 276 278 281 288 283 280 273 277 276
340 329 100 152 107 64 28 10 33 54 71 60 294 150 313 287 180 150 172 169 147 129 103 126 158 211 278 2 224 235 277 299 308 310 314 320 330 323 314 305 296 287 282 279
358 350 317 81 35 10 54 47 346 356 8 220 316 53 238 300 185 171 159 153 135 155 165 25 36 29 103 95 58 72 60 37 7 348 334 328 320 313 304 298 292 291 291 289
138 329 350 354 138 187 62 133 148 268 306 282 328 156 253 215 302 81 96 144 160 46 17 36 61 89 103 108 104 63 16 355 341 333 328 325 317 313 305 299 296 297 296 291
129 282 325 38 63 99 155 70 175 106 21 27 281 302 339 188 124 76 117 74 37 21 46 95 115 110 107 99 28 0 346 336 331 325 315 310 307 307 305 299 298 299 294 288
183 55 327 308 46 37 101 159 53 18 254 298 291 279 231 229 204 151 128 99 35 76 54 30 154 140 12 332 337 337 334 324 316 316 319 314 308 304 301 297 295 293 291 290
110 111 289 344 170 184 345 13 54 112 131 181 273 269 245 237 180 161 165 173 177 82 347 317 257 257 291 327 328 319 314 315 319 319 318 322 320 318 315 309 305 302 298 300
34 132 217 236 284 295 177 177 126 118 244 209 163 270 341 97 130 148 148 358 135 242 317 311 216 270 325 317 319 316 319 323 323 323 322 321 321 322 321 316 312 310 303 297
183 23 19 349 354 3 43 4 108 117 81 203 140 266 77 91 98 118 35 222 270 315 326 319 304 316 311 322 317 311 320 326 328 325 319 320 322 319 314 308 300 299 297 294
87 116 150 193 221 200 293 294 323 141 121 227 226 251 197 191 192 154 242 216 273 274 263 245 285 303 309 306 307 319 322 329 331 323 316 308 309 304 306 304 303 303 297 292
100 164 171 240 238 251 255 275 260 198 208 181 258 204 184 185 182 180 197 239 235 254 237 266 275 284 303 303 310 319 323 328 332 324 311 308 309 307 305 303 300 301 298 291
25 201 165 284 304 285 266 266 260 259 202 204 139 241 154 131 59 215 281 268 251 251 244 276 288 300 302 307 314 325 324 326 330 325 308 312 310 310 309 306 303 301 295 293
126 128 93 273 336 332 344 252 271 320 117 139 175 233 161 211 248 227 223 235 243 244 287 290 283 301 320 318 317 323 325 331 328 319 316 313 315 315 314 311 307 301 294 296
135 113 115 250 14 303 241 269 281 167 56 95 103 170 196 207 190 165 195 223 245 268 276 286 313 319 321 315 318 330 331 325 325 325 323 323 321 319 317 312 305 302 297 293
136 126 113 150 203 287 302 132 139 158 264 182 172 205 218 49 52 262 202 214 224 257 298 313 318 320 325 322 331 332 326 331 329 327 325 324 324 320 319 315 312 308 300 294
70 67 122 130 149 246 242 300 116 110 302 193 186 202 193 133 343 257 234 182 301 323 315 306 320 331 340 340 340 329 330 329 329 327 325 326 325 322 321 327 332 328 325 304
104 52 177 147 204 284 245 204 197 90 242 177 185 190 176 197 202 216 182 179 310 296 307 323 333 341 344 343 342 337 331 331 330 331 333 330 332 328 327 334 336 335 328 326
173 157 195 103 159 275 170 94 166 211 206 174 189 188 188 184 189 209 188 222 266 315 332 338 338 343 347 350 348 334 331 337 335 334 333 332 334 333 332 339 340 343 342 336
229 186 186 175 207 230 227 189 200 170 163 200 175 173 167 170 202 189 196 206 265 325 330 334 336 338 349 355 352 333 335 341 339 335 332 332 333 334 338 337 337 338 347 349
235 158 194 101 254 238 229 238 174 190 191 168 163 154 164 180 189 195 186 203 284 320 332 333 341 345 345 355 356 348 342 344 342 334 333 334 333 336 339 341 339 338 342 357
206 139 165 266 287 307 275 221 185 180 150 137 147 161 178 171 189 189 184 205 268 312 326 335 344 344 342 351 352 358 352 351 343 337 334 334 335 335 336 344 345 350 1 357
184 186 162 224 225 188 237 219 167 160 174 165 158 165 179 181 182 171 187 213 275 320 331 340 347 347 343 345 346 353 353 354 347 336 336 335 335 335 337 339 345 12 16 22